When you browse on this site, cookies collect data to enhance your experience and personalize the content and advertising you see.
Visit our Privacy Policy to learn more. By continuing to use the site, you agree to this use of cookies and data.
  • In Hungary
  • List of Countries
  • For 7 days
  • Water Temperature
  • Weather Map
  • News
  • Weather Widgets
  • user-avatar
    Login

    Hourly Weather Urmankul

    Today, 22 October, Tuesday

    Time Temperature Precipitation Wind Pressure Humidity
    00:00 +4°C° 0 mm 8 mps 751 mmHg 92%
    01:00 +3°C° 0 mm 9 mps 749 mmHg 90%
    02:00 +5°C° 0.6 mm 9 mps 749 mmHg 91%
    03:00 +5°C° 0.6 mm 9 mps 748 mmHg 91%
    04:00 +6°C° 0.6 mm 10 mps 747 mmHg 92%
    05:00 +6°C° 2.4 mm 9 mps 747 mmHg 92%
    06:00 +6°C° 2.4 mm 8 mps 747 mmHg 93%
    07:00 +8°C° 2.4 mm 7 mps 747 mmHg 94%
    08:00 +8°C° 0.2 mm 6 mps 747 mmHg 89%
    09:00 +7°C° 0.2 mm 6 mps 748 mmHg 85%
    10:00 +7°C° 0.2 mm 6 mps 748 mmHg 80%
    11:00 +7°C° 0 mm 5 mps 748 mmHg 77%
    12:00 +6°C° 0 mm 5 mps 749 mmHg 74%
    13:00 +6°C° 0 mm 5 mps 749 mmHg 71%
    14:00 +6°C° 0 mm 5 mps 749 mmHg 72%
    15:00 +6°C° 0 mm 4 mps 750 mmHg 72%
    16:00 +6°C° 0 mm 4 mps 750 mmHg 73%
    17:00 +5°C° 0 mm 4 mps 751 mmHg 74%
    18:00 +4°C° 0 mm 4 mps 751 mmHg 75%
    19:00 +4°C° 0 mm 4 mps 751 mmHg 76%
    20:00 +3°C° 0 mm 3 mps 751 mmHg 76%
    21:00 +3°C° 0 mm 3 mps 751 mmHg 76%
    22:00 +4°C° 0 mm 2 mps 752 mmHg 76%
    23:00 +3°C° 0 mm 2 mps 752 mmHg 79%

    Tomorrow, 23 October, Wednesday

    Time Temperature Precipitation Wind Pressure Humidity
    00:00 +2°C° 0 mm 2 mps 751 mmHg 81%
    01:00 +2°C° 0 mm 2 mps 751 mmHg 84%
    02:00 +1°C° 0 mm 2 mps 752 mmHg 85%
    03:00 +1°C° 0 mm 2 mps 752 mmHg 86%
    04:00 -1°C° 0 mm 3 mps 752 mmHg 88%
    05:00 -1°C° 0 mm 2 mps 752 mmHg 88%
    06:00 -1°C° 0 mm 2 mps 752 mmHg 88%
    07:00 -1°C° 0 mm 2 mps 752 mmHg 88%
    08:00 0°C° 0 mm 3 mps 752 mmHg 85%
    09:00 0°C° 0 mm 3 mps 752 mmHg 82%
    10:00 0°C° 0 mm 4 mps 751 mmHg 79%
    11:00 +1°C° 0 mm 4 mps 751 mmHg 78%
    12:00 +2°C° 0 mm 5 mps 750 mmHg 77%
    13:00 +3°C° 0 mm 6 mps 750 mmHg 77%
    14:00 +3°C° 0 mm 5 mps 749 mmHg 79%
    15:00 +3°C° 0 mm 5 mps 749 mmHg 81%
    16:00 +3°C° 0 mm 5 mps 749 mmHg 83%
    17:00 +3°C° 0.1 mm 5 mps 748 mmHg 84%
    18:00 +3°C° 0.1 mm 6 mps 748 mmHg 86%
    19:00 +3°C° 0.1 mm 6 mps 747 mmHg 87%
    20:00 +3°C° 0.1 mm 6 mps 747 mmHg 89%
    21:00 +4°C° 0.1 mm 6 mps 747 mmHg 90%
    22:00 +4°C° 0.1 mm 6 mps 746 mmHg 91%
    23:00 +5°C° 0 mm 6 mps 746 mmHg 92%

    Day after tomorrow, 24 October, Thursday

    Time Temperature Precipitation Wind Pressure Humidity
    00:00 +5°C° 0 mm 6 mps 746 mmHg 93%
    01:00 +5°C° 0 mm 6 mps 746 mmHg 94%
    02:00 +6°C° 0 mm 5 mps 746 mmHg 94%
    03:00 +6°C° 0 mm 5 mps 746 mmHg 94%
    04:00 +6°C° 0 mm 5 mps 747 mmHg 94%
    05:00 +6°C° 0 mm 4 mps 747 mmHg 94%
    06:00 +6°C° 0 mm 4 mps 748 mmHg 93%
    07:00 +5°C° 0 mm 4 mps 748 mmHg 93%
    08:00 +5°C° 0 mm 4 mps 749 mmHg 90%
    09:00 +7°C° 0 mm 3 mps 749 mmHg 86%
    10:00 +7°C° 0 mm 3 mps 750 mmHg 83%
    11:00 +7°C° 0 mm 3 mps 750 mmHg 79%
    12:00 +8°C° 0 mm 3 mps 750 mmHg 76%
    13:00 +7°C° 0 mm 4 mps 751 mmHg 72%
    14:00 +7°C° 0 mm 3 mps 751 mmHg 74%
    15:00 +7°C° 0 mm 3 mps 751 mmHg 75%
    16:00 +7°C° 0 mm 2 mps 752 mmHg 76%
    17:00 +6°C° 0 mm 2 mps 752 mmHg 80%
    18:00 +5°C° 0 mm 2 mps 752 mmHg 83%
    19:00 +4°C° 0 mm 2 mps 752 mmHg 87%
    20:00 +4°C° 0 mm 2 mps 752 mmHg 88%
    21:00 +4°C° 0 mm 2 mps 753 mmHg 90%
    22:00 +4°C° 0 mm 2 mps 753 mmHg 92%
    23:00 +4°C° 0 mm 2 mps 753 mmHg 93%

    25 October, Friday

    Time Temperature Precipitation Wind Pressure Humidity
    00:00 +5°C° 0 mm 2 mps 752 mmHg 93%
    01:00 +4°C° 0 mm 3 mps 752 mmHg 94%
    02:00 +4°C° 0 mm 3 mps 752 mmHg 95%
    03:00 +5°C° 0 mm 3 mps 752 mmHg 95%
    04:00 +5°C° 0 mm 3 mps 752 mmHg 96%
    05:00 +5°C° 0 mm 3 mps 752 mmHg 96%
    06:00 +5°C° 0 mm 3 mps 752 mmHg 96%
    07:00 +5°C° 0 mm 3 mps 752 mmHg 97%
    08:00 +5°C° 0 mm 3 mps 751 mmHg 95%
    09:00 +7°C° 0 mm 3 mps 751 mmHg 92%
    10:00 +6°C° 0 mm 4 mps 751 mmHg 90%
    11:00 +7°C° 0 mm 4 mps 751 mmHg 87%
    12:00 +7°C° 0 mm 4 mps 751 mmHg 83%
    13:00 +8°C° 0 mm 4 mps 751 mmHg 80%
    14:00 +8°C° 0 mm 5 mps 750 mmHg 80%
    15:00 +8°C° 0 mm 5 mps 750 mmHg 80%
    16:00 +8°C° 0 mm 5 mps 750 mmHg 81%
    17:00 +8°C° 0 mm 5 mps 750 mmHg 82%
    18:00 +7°C° 0 mm 5 mps 750 mmHg 84%
    19:00 +7°C° 0 mm 5 mps 750 mmHg 85%
    20:00 +7°C° 0.1 mm 4 mps 750 mmHg 86%
    21:00 +6°C° 0.1 mm 4 mps 751 mmHg 87%
    22:00 +7°C° 0.1 mm 3 mps 751 mmHg 87%
    23:00 +7°C° 0 mm 3 mps 751 mmHg 89%

    26 October, Saturday

    Time Temperature Precipitation Wind Pressure Humidity
    00:00 +5°C° 0 mm 3 mps 751 mmHg 90%
    01:00 +5°C° 0 mm 3 mps 751 mmHg 91%
    02:00 +4°C° 0 mm 3 mps 751 mmHg 92%
    03:00 +4°C° 0 mm 3 mps 751 mmHg 93%
    04:00 +4°C° 0 mm 3 mps 752 mmHg 93%
    05:00 +4°C° 0 mm 4 mps 751 mmHg 92%
    06:00 +5°C° 0 mm 4 mps 751 mmHg 91%
    07:00 +5°C° 0 mm 5 mps 751 mmHg 90%
    08:00 +5°C° 0 mm 6 mps 750 mmHg 88%
    09:00 +5°C° 0 mm 6 mps 750 mmHg 86%
    10:00 +6°C° 0 mm 7 mps 750 mmHg 85%
    11:00 +6°C° 0 mm 8 mps 749 mmHg 80%
    12:00 +7°C° 0 mm 8 mps 748 mmHg 75%
    13:00 +9°C° 0 mm 8 mps 748 mmHg 70%
    14:00 +9°C° 0 mm 8 mps 747 mmHg 69%
    15:00 +9°C° 0 mm 8 mps 747 mmHg 68%
    16:00 +9°C° 0 mm 7 mps 747 mmHg 68%
    17:00 +9°C° 0 mm 7 mps 747 mmHg 70%
    18:00 +9°C° 0 mm 7 mps 747 mmHg 73%
    19:00 +8°C° 0 mm 7 mps 747 mmHg 75%
    20:00 +8°C° 0 mm 7 mps 746 mmHg 78%
    21:00 +8°C° 0 mm 6 mps 746 mmHg 81%
    22:00 +8°C° 0 mm 6 mps 746 mmHg 83%
    23:00 +8°C° 0 mm 6 mps 746 mmHg 85%

    27 October, Sunday

    Time Temperature Precipitation Wind Pressure Humidity
    00:00 +8°C° 0 mm 6 mps 747 mmHg 86%
    01:00 +8°C° 0 mm 5 mps 747 mmHg 88%
    02:00 +8°C° 0 mm 5 mps 747 mmHg 88%
    03:00 +8°C° 0 mm 5 mps 747 mmHg 88%
    04:00 +8°C° 0 mm 5 mps 748 mmHg 88%
    05:00 +8°C° 0 mm 4 mps 748 mmHg 89%
    06:00 +8°C° 0 mm 4 mps 748 mmHg 90%
    07:00 +7°C° 0 mm 4 mps 748 mmHg 91%
    08:00 +8°C° 0 mm 4 mps 748 mmHg 89%
    09:00 +9°C° 0 mm 3 mps 748 mmHg 88%
    10:00 +9°C° 0 mm 3 mps 749 mmHg 86%
    11:00 +8°C° 0 mm 4 mps 749 mmHg 86%
    12:00 +10°C° 0 mm 4 mps 749 mmHg 85%
    13:00 +10°C° 0 mm 4 mps 749 mmHg 84%
    14:00 +10°C° 0.1 mm 4 mps 749 mmHg 86%
    15:00 +9°C° 0.1 mm 5 mps 748 mmHg 88%
    16:00 +9°C° 0.1 mm 5 mps 748 mmHg 89%
    17:00 +9°C° 0 mm 5 mps 748 mmHg 88%
    18:00 +9°C° 0 mm 5 mps 748 mmHg 88%
    19:00 +9°C° 0 mm 5 mps 748 mmHg 87%
    20:00 +9°C° 0 mm 5 mps 747 mmHg 84%
    21:00 +8°C° 0 mm 5 mps 747 mmHg 81%
    22:00 +8°C° 0 mm 6 mps 746 mmHg 78%
    23:00 +8°C° 0 mm 6 mps 746 mmHg 76%

    28 October, Monday

    Time Temperature Precipitation Wind Pressure Humidity
    00:00 +8°C° 0 mm 7 mps 746 mmHg 74%
    01:00 +8°C° 0 mm 7 mps 745 mmHg 73%
    02:00 +8°C° 0 mm 7 mps 745 mmHg 70%
    03:00 +8°C° 0 mm 7 mps 744 mmHg 67%
    04:00 +7°C° 0 mm 8 mps 744 mmHg 64%
    05:00 +7°C° 0 mm 8 mps 743 mmHg 65%
    06:00 +6°C° 0 mm 8 mps 743 mmHg 66%
    07:00 +6°C° 0 mm 8 mps 742 mmHg 67%
    08:00 +7°C° 0 mm 9 mps 741 mmHg 66%
    09:00 +8°C° 0 mm 9 mps 741 mmHg 64%
    10:00 +10°C° 0 mm 9 mps 741 mmHg 63%
    11:00 +10°C° 0 mm 9 mps 740 mmHg 62%
    12:00 +10°C° 0 mm 9 mps 740 mmHg 61%
    13:00 +11°C° 0 mm 8 mps 740 mmHg 60%
    14:00 +10°C° 0.5 mm 8 mps 740 mmHg 67%
    15:00 +9°C° 0.5 mm 7 mps 740 mmHg 75%
    16:00 +8°C° 0.5 mm 6 mps 739 mmHg 83%
    17:00 +8°C° 1.2 mm 6 mps 739 mmHg 86%
    18:00 +8°C° 1.2 mm 6 mps 739 mmHg 89%
    19:00 +8°C° 1.2 mm 6 mps 739 mmHg 92%
    20:00 +7°C° 0.4 mm 6 mps 738 mmHg 89%
    21:00 +7°C° 0.4 mm 6 mps 738 mmHg 87%
    22:00 +5°C° 0.4 mm 6 mps 738 mmHg 84%
    23:00 +5°C° 0 mm 5 mps 738 mmHg 84%
    Show more